Tracking 32991 objects as of 22-Jan-2026
HD Live streaming from Space Station
objects crossing your sky now

ARIANE 1 DEB

Track ARIANE 1 DEB now!
10-day predictions


NORAD ID: 39107
Int'l Code: 1986-019VV
Perigee: 754.4 km
Apogee: 972.0 km
Inclination: 98.7 °
Period: 102.1 minutes
Semi major axis: 7234 km
RCS: 0.0163 m2 (small)
Launch date: February 22, 1986
Source: France (FR)
Launch site: FRENCH GUIANA (FRGUI)

Note: This is SATELLITE DEBRIS
Your satellite tracking list
Your tracking list is empty




NASA's NSSDC Master Catalog

Two Line Element Set (TLE):
1 39107U 86019VV  26021.29281319  .00001961  00000-0  10029-2 0  9991
2 39107  98.6623  50.2269 0150358  64.4855 297.1780 14.10966523644010
Source of the keplerian elements: AFSPC